Concordia, KS

3:14 AM CDT on October 21, 2019 (GMT -0500)
Blosser Municipal

Weather History for KCNK - August, 2019

Change the Weather History Date:

Wednesday, August 28, 2019

  Actual Average Record
Temperature  
Mean Temperature 70 °F 75 °F  
Max Temperature 84 °F 87 °F 107 °F (2000)
Min Temperature 56 °F 63 °F 48 °F (1976)
Degree Days  
Heating Degree Days 0 0  
Month to date heating degree days 0 0  
Since 1 June heating degree days 0 13  
Since 1 July heating degree days 0 0  
Cooling Degree Days 5 10  
Month to date cooling degree days 343 347  
Year to date cooling degree days 1248 1137  
Since 1 June cooling degree days 1148 1048  
Growing Degree Days 20 (Base 50)    
Moisture  
Dew Point 59 °F    
Average Humidity 67    
Maximum Humidity 90    
Minimum Humidity 43    
Precipitation  
Precipitation 0.00 in 0.10 in 2.20 in (1960)
Month to date precipitation 5.98 2.86  
Year to date precipitation 28.21 20.82  
Snow  
Snow 0.00 in 0.00 in T in (1945)
Month to date snowfall 0.0 0.0  
Year to date snowfall 32.3 13.7  
Since 1 July snowfall 0.0 0.0  
Snow Depth 0.00 in    
Sea Level Pressure  
Sea Level Pressure 30.04 in    
Wind  
Wind Speed 7 mph (SSW)    
Max Wind Speed 18 mph    
Max Gust Speed 27 mph    
Visibility 10 miles    
Events      
T = Trace of Precipitation, MM = Missing Value Source: NWS Daily Summary

Daily Weather History Graph

Daily Weather History Graph

Search for Another Location

Airport or City:

Astronomy

Aug. 28, 2019 Rise Set
Actual Time 6:54 AM CDT 8:08 PM CDT
Civil Twilight 6:27 AM CDT 8:35 PM CDT
Nautical Twilight 5:53 AM CDT 9:08 PM CDT
Astronomical Twilight 5:18 AM CDT 9:43 PM CDT
Moon 4:29 AM CDT (8/28) 7:20 PM CDT (8/28)
Length of Visible Light 14h 08m
Length of Day
13h 13m
Waning Crescent, 4% of the Moon is Illuminated
Aug 28
Waning Crescent
Aug 30
New
Sep 5
First Quarter
Sep 13
Full
Sep 21
Last Quarter

Hourly Weather History & Observations

Time (CDT) Temp. Heat Index Dew Point Humidity Pressure Visibility Wind Dir Wind Speed Gust Speed Precip Events Conditions
12:55 AM 64.9 °F - 55.9 °F 73% 30.08 in 10.0 mi SW 4.6 mph - N/A   Mostly Cloudy
1:55 AM 62.1 °F - 57.0 °F 84% 30.09 in 10.0 mi Calm Calm - N/A   Scattered Clouds
2:55 AM 62.1 °F - 57.0 °F 84% 30.10 in 10.0 mi WSW 3.5 mph - N/A   Scattered Clouds
4:55 AM 60.1 °F - 55.9 °F 86% 30.10 in 10.0 mi SW 4.6 mph - N/A   Clear
6:55 AM 57.0 °F - 54.0 °F 89% 30.11 in 10.0 mi Calm Calm - N/A   Clear
7:55 AM 60.1 °F - 57.0 °F 90% 30.12 in 10.0 mi Calm Calm - N/A   Clear
8:55 AM 66.9 °F - 57.9 °F 73% 30.12 in 10.0 mi Calm Calm - N/A   Clear
9:55 AM 72.0 °F - 57.9 °F 61% 30.12 in 10.0 mi West 4.6 mph - N/A   Clear
10:55 AM 75.0 °F - 61.0 °F 62% 30.11 in 10.0 mi WSW 8.1 mph - N/A   Mostly Cloudy
11:55 AM 78.1 °F - 63.0 °F 60% 30.09 in 10.0 mi SW 8.1 mph - N/A   Clear
1:55 PM 82.0 °F 82.0 °F 57.9 °F 44% 30.06 in 10.0 mi SW 12.7 mph - N/A   Clear
2:55 PM 82.9 °F 83.2 °F 60.1 °F 46% 30.03 in 10.0 mi SSW 9.2 mph - N/A   Clear
3:55 PM 82.9 °F 83.7 °F 62.1 °F 49% 30.01 in 10.0 mi South 9.2 mph - N/A   Clear
4:55 PM 84.0 °F 84.5 °F 62.1 °F 47% 29.99 in 10.0 mi South 8.1 mph - N/A   Clear
5:55 PM 82.0 °F 83.0 °F 62.1 °F 51% 29.96 in 10.0 mi South 8.1 mph 19.6 mph N/A   Clear
6:55 PM 80.1 °F 81.2 °F 62.1 °F 54% 29.95 in 10.0 mi South 8.1 mph - N/A   Clear
7:55 PM 73.9 °F - 62.1 °F 66% 29.94 in 10.0 mi South 8.1 mph - N/A   Clear
8:55 PM 72.0 °F - 61.0 °F 68% 29.94 in 10.0 mi South 10.4 mph - N/A   Clear
9:55 PM 73.0 °F - 61.0 °F 66% 29.94 in 10.0 mi South 12.7 mph - N/A   Clear
10:55 PM 73.9 °F - 60.1 °F 62% 29.94 in 10.0 mi South 16.1 mph 26.5 mph N/A   Clear
11:55 PM 73.0 °F - 60.1 °F 64% 29.93 in 10.0 mi South 16.1 mph - N/A   Clear